Main page
METAR-TAF:

METAR-TAF

Airports :

Montes Claros Airport

Montes Claros, Minas Gerais, Brazil

latitude: 16-43S, longitude: 043-52W, elevation: 646 m

Current weather observation

The report was made 45 minutes ago, at 03:00 UTC
Calm wind
Temperature 27°C
Humidity 45%
Pressure 1013 hPa
Visibility 10 km or more
no clouds below 1500 m and no cumulonimbus

METAR: SBMK 150300Z 00000KT CAVOK 27/14 Q1013

Time: 01:45 (03:45 UTC)


TAF: missing

Weather observations and forecasts of more than 4000 airports (METAR and TAF reports).

The available stations are represented by yellow and red dots on the map.

Hover mouse over dot to see the name of the station.

Then click to see weather observations and forecasts.

To change the map : click on the green buttons with a black cross to zoom in, on the green button with a dash to zoom out, or on the green arrows for adjacent maps.


METAR-TAF: